Skip Page Navigation
NASA JPL Caltech
NASA Logo - Jet Propulsion Laboratory + View the NASA Portal
+ Center for Near-Earth Object Studies
JPL Home Earth Solar System Stars & Galaxies Technology
JPL Solar System Dynamics
BODIES ORBITS EPHEMERIDES TOOLS PHYSICAL DATA DISCOVERY FAQ SITE MAP
IMPORTANT: The SSD Announcement email list is now available. Major changes are coming in the near future, including possible hostname and/or URL changes. To be notified of such changes, subscribe to this email list.

Please visit this page for more details.


JPL Small-Body Database Browser
Search: [ help ]  
413812 (2006 KN87)
Classification: Main-belt Asteroid          SPK-ID: 2413812
Ephemeris | Orbit Diagram | Orbital Elements | Mission Design | Physical Parameters | Discovery Circumstances ]

[ show orbit diagram ]
Orbital Elements at Epoch 2458600.5 (2019-Apr-27.0) TDB
Reference: JPL 15 (heliocentric ecliptic J2000)
 Element Value Uncertainty (1-sigma)   Units 
e .02906316914658709 7.1725e-08  
a 2.246065651895048 2.2283e-08 au
q 2.180787865939683 1.6713e-07 au
i 8.760123771793012 7.8877e-06 deg
node 60.76565538301303 3.6476e-05 deg
peri 111.9955897496984 0.00015918 deg
M 1.985037753609326 0.00014961 deg
tp 2458593.720489045737
(2019-Apr-20.22048905)
0.00051101 TDB
period 1229.510088207176
3.37
1.8297e-05
5.009e-08
d
yr
n .2927995495546832 4.3573e-09 deg/d
Q 2.311343437850413 2.2931e-08 au
  Orbit Determination Parameters
   # obs. used (total)      192  
   data-arc span      5284 days (14.47 yr)  
   first obs. used      2004-11-18  
   last obs. used      2019-05-08  
   planetary ephem.      DE431  
   SB-pert. ephem.      SB431-N16  
   condition code      0  
   norm. resid. RMS      .585  
   source      ORB  
   producer      Otto Matic  
   solution date      2019-May-30 10:02:27  

Additional Information
 Earth MOID = 1.19424 au 
 Jupiter MOID = 2.66599 au 
 T_jup = 3.615 
[ show covariance matrix ]

Ephemeris | Orbit Diagram | Orbital Elements | Mission Design | Physical Parameters | Discovery Circumstances ]

Physical Parameter Table
Parameter Symbol Value Units Sigma Reference Notes
absolute magnitude H 17.4   n/a MPO423475  

413812 (2006 KN87)          Discovered 2006-May-24 by Spacewatch at Kitt Peak
Reference: Last Updated: 2014-11-10
Ephemeris | Orbit Diagram | Orbital Elements | Mission Design | Physical Parameters | Discovery Circumstances ]
ABOUT SSD CREDITS/AWARDS PRIVACY/COPYRIGHT GLOSSARY LINKS
FirstGov
(server date/time)  
NASA Home Page
Site Manager:   Ryan S. Park
Webmaster  Alan B. Chamberlin